CW9414 Weather Reports


Display with metric or nautical units.
time (UTC)temp
F
wind
direction
speed
MPH
gust
MPH
rain 1hr
in
rain 24hr
in
rain mn
in
humidity
%
barometer
mb
20260510031407 73 178 0.0 0.0 0.00 0.00 0.15 82 1007.2
20260510030407 73 178 0.0 0.0 0.00 0.00 0.15 82 1007.2
20260510025408 73 178 0.0 0.0 0.00 0.00 0.15 82 1006.7
20260510024408 73 178 0.0 1.0 0.00 0.00 0.15 82 1006.3
20260510023407 73 178 0.0 1.0 0.00 0.00 0.15 82 1006.3
20260510022411 73 178 0.0 1.0 0.00 0.00 0.15 81 1006.0
20260510021410 73 178 0.0 1.0 0.00 0.00 0.15 81 1005.4
20260510020407 73 178 0.0 0.0 0.00 0.00 0.15 79 1005.4
20260510015407 73 178 0.0 0.0 0.00 0.00 0.15 79 1004.9
20260510014408 73 178 0.0 0.0 0.00 0.00 0.15 78 1004.9
20260510013407 73 178 0.0 0.0 0.00 0.00 0.15 78 1004.9
20260510012407 73 178 0.0 0.0 0.00 0.00 0.15 78 1004.8
20260510011408 73 178 0.0 0.0 0.00 0.00 0.15 77 1004.9
20260510010408 73 178 0.0 0.0 0.00 0.00 0.15 76 1004.9
20260510005408 73 178 0.0 0.0 0.00 0.00 0.15 75 1004.4
20260510004408 73 178 0.0 2.0 0.00 0.00 0.15 75 1004.4
20260510003407 73 178 0.0 2.0 0.00 0.00 0.15 75 1004.4
20260510002407 73 180 0.0 0.0 0.00 0.00 0.15 74 1005.0
20260510001407 73 163 1.0 4.0 0.00 0.00 0.15 71 1005.8
20260510000408 75 145 0.0 2.0 0.00 0.00 0.15 70 1005.8
20260509235407 77 155 2.0 12.0 0.00 0.00 0.13 63 1005.0
20260509234411 82 189 3.0 16.0 0.00 0.00 0.06 55 1004.6
20260509233407 86 202 2.0 8.0 0.00 0.00 0.00 49 1004.7
20260509232407 89 138 0.0 5.0 0.00 0.00 0.00 54 1004.3
20260509231407 90 311 0.0 3.0 0.00 0.00 0.00 52 1004.1
20260509230407 91 311 0.0 0.0 0.00 0.00 0.00 51 1004.1
20260509225407 92 311 0.0 2.0 0.00 0.00 0.00 51 1003.8
20260509224407 93 311 0.0 1.0 0.00 0.00 0.00 49 1003.9
20260509223410 94 311 0.0 3.0 0.00 0.00 0.00 48 1003.9
20260509222410 95 313 1.0 2.0 0.00 0.00 0.00 49 1003.6
20260509221407 95 313 0.0 3.0 0.00 0.00 0.00 49 1003.6
20260509220407 94 313 0.0 3.0 0.00 0.00 0.00 49 1003.6
20260509215407 94 313 1.0 2.0 0.00 0.00 0.00 50 1003.7
20260509214408 94 313 0.0 3.0 0.00 0.00 0.00 52 1003.7
20260509213407 93 313 0.0 3.0 0.00 0.00 0.00 51 1003.7
20260509212407 93 313 0.0 5.0 0.00 0.00 0.00 52 1003.8
20260509211407 93 313 1.0 4.0 0.00 0.00 0.00 55 1004.1
20260509210407 92 300 0.0 1.0 0.00 0.00 0.00 55 1004.1
20260509205407 92 300 2.0 4.0 0.00 0.00 0.00 54 1004.4
20260509204407 92 300 1.0 5.0 0.00 0.00 0.00 55 1004.5
20260509203407 91 302 0.0 3.0 0.00 0.00 0.00 56 1004.5
20260509202410 91 302 0.0 3.0 0.00 0.00 0.00 56 1004.6
20260509201410 90 302 0.0 2.0 0.00 0.00 0.00 58 1004.7
20260509200406 90 302 1.0 3.0 0.00 0.00 0.00 57 1004.7
20260509195407 90 303 1.0 5.0 0.00 0.00 0.00 57 1004.9
20260509194407 90 304 0.0 4.0 0.00 0.00 0.00 61 1005.1
20260509193407 89 304 1.0 4.0 0.00 0.00 0.00 60 1005.1
20260509192407 88 304 1.0 5.0 0.00 0.00 0.00 59 1005.1
20260509191407 88 306 4.0 7.0 0.00 0.00 0.00 61 1005.1
20260509190407 87 140 1.0 2.0 0.00 0.00 0.00 64 1005.1
20260509185406 86 140 1.0 3.0 0.00 0.00 0.00 64 1005.2
20260509184407 86 140 0.0 3.0 0.00 0.00 0.00 64 1005.6
20260509183407 86 140 1.0 3.0 0.00 0.00 0.00 66 1005.6
20260509182406 85 140 1.0 3.0 0.00 0.00 0.00 68 1005.8
20260509181407 85 140 0.0 3.0 0.00 0.00 0.00 68 1006.1
20260509180410 85 140 2.0 4.0 0.00 0.00 0.00 69 1006.1
20260509175410 85 140 0.0 3.0 0.00 0.00 0.00 69 1006.2
20260509174411 85 140 0.0 9.0 0.00 0.00 0.00 71 1006.6
20260509173407 84 142 5.0 6.0 0.00 0.00 0.00 74 1006.6
20260509172410 83 142 3.0 5.0 0.00 0.00 0.00 77 1006.6
20260509171410 82 146 3.0 6.0 0.00 0.00 0.00 79 1006.8
20260509170406 81 146 0.0 4.0 0.00 0.00 0.00 82 1006.8
20260509165407 80 146 0.0 2.0 0.00 0.00 0.00 83 1006.7
20260509164406 80 146 0.0 2.0 0.00 0.00 0.00 85 1006.7
20260509163406 79 146 1.0 2.0 0.00 0.00 0.00 87 1006.7
20260509162407 79 146 0.0 1.0 0.00 0.00 0.00 88 1006.7
20260509161407 79 146 0.0 1.0 0.00 0.00 0.00 89 1006.6
20260509160409 78 146 2.0 3.0 0.00 0.00 0.00 89 1006.6
20260509155408 78 146 0.0 0.0 0.00 0.00 0.00 90 1006.8
20260509154407 78 146 0.0 1.0 0.00 0.00 0.00 91 1006.6
20260509153406 78 146 0.0 1.0 0.00 0.00 0.00 91 1006.6
20260509152406 78 146 0.0 0.0 0.00 0.00 0.00 92 1006.7
20260509151407 77 146 0.0 0.0 0.00 0.00 0.00 92 1006.6
20260509150406 77 146 0.0 0.0 0.00 0.00 0.00 93 1006.6
20260509145406 77 146 0.0 0.0 0.00 0.00 0.00 93 1006.4
20260509144406 77 146 0.0 0.0 0.00 0.00 0.00 93 1006.0
20260509143407 76 146 0.0 0.0 0.00 0.00 0.00 94 1006.0
20260509142406 76 146 0.0 0.0 0.00 0.00 0.00 94 1005.8
20260509141406 76 146 0.0 1.0 0.00 0.00 0.00 94 1005.5
20260509140406 76 146 0.0 1.0 0.00 0.00 0.00 94 1005.5
20260509135407 76 146 0.0 1.0 0.00 0.00 0.00 94 1006.0
20260509134407 76 146 0.0 2.0 0.00 0.00 0.00 94 1006.6
20260509133406 76 146 0.0 1.0 0.00 0.00 0.00 94 1006.6
20260509132407 76 146 0.0 2.0 0.00 0.00 0.00 94 1006.6
20260509131407 76 146 0.0 0.0 0.00 0.00 0.00 94 1007.1
20260509130410 75 146 0.0 0.0 0.00 0.00 0.00 94 1007.1
20260509125406 75 146 0.0 0.0 0.00 0.00 0.00 94 1006.4
20260509124406 75 146 0.0 1.0 0.00 0.00 0.00 94 1006.6
20260509123406 75 146 0.0 0.0 0.00 0.00 0.00 94 1006.6
20260509122411 75 146 0.0 0.0 0.00 0.00 0.00 93 1006.6
20260509121406 75 146 0.0 0.0 0.00 0.00 0.00 93 1006.6
20260509120406 74 146 0.0 0.0 0.00 0.00 0.00 93 1006.6
20260509115409 75 146 0.0 0.0 0.00 0.00 0.00 93 1006.3
20260509114406 75 146 0.0 0.0 0.00 0.00 0.00 93 1006.2
20260509113406 75 146 0.0 1.0 0.00 0.00 0.00 93 1006.2
20260509112407 75 146 0.0 0.0 0.00 0.00 0.00 93 1006.1
20260509111406 75 146 0.0 0.0 0.00 0.00 0.00 93 1006.0
20260509110406 75 146 0.0 0.0 0.00 0.00 0.00 93 1006.0
20260509105406 75 146 0.0 0.0 0.00 0.00 0.00 93 1005.6
20260509104406 75 146 0.0 0.0 0.00 0.00 0.00 92 1005.5
20260509103406 75 146 0.0 0.0 0.00 0.00 0.00 92 1005.5
20260509102407 75 146 0.0 0.0 0.00 0.00 0.00 92 1005.9
20260509101407 75 146 0.0 0.0 0.00 0.00 0.00 92 1005.6
20260509100407 75 146 0.0 0.0 0.00 0.00 0.00 92 1005.6
20260509095407 75 146 0.0 0.0 0.00 0.00 0.00 92 1005.3
20260509094409 75 146 0.0 0.0 0.00 0.00 0.00 92 1005.2
20260509093409 75 146 0.0 0.0 0.00 0.00 0.00 92 1005.2
20260509092409 75 146 0.0 0.0 0.00 0.00 0.00 92 1005.5
20260509091406 75 146 0.0 0.0 0.00 0.00 0.00 92 1005.8
20260509090406 75 146 0.0 0.0 0.00 0.00 0.00 92 1005.8
20260509085409 75 146 0.0 0.0 0.00 0.00 0.00 92 1005.8
20260509084406 75 146 0.0 0.0 0.00 0.00 0.00 92 1005.5
20260509083407 75 146 0.0 0.0 0.00 0.00 0.00 92 1005.5
20260509082406 75 146 0.0 0.0 0.00 0.00 0.00 92 1005.5
20260509081406 75 146 0.0 0.0 0.00 0.00 0.00 92 1005.5
20260509080406 75 146 0.0 0.0 0.00 0.00 0.00 92 1005.5
20260509075406 75 146 0.0 0.0 0.00 0.00 0.00 92 1005.5
20260509074406 75 146 0.0 1.0 0.00 0.00 0.00 92 1005.2
20260509073409 75 146 0.0 3.0 0.00 0.00 0.00 92 1005.2
20260509072409 75 146 0.0 1.0 0.00 0.00 0.00 92 1005.6
20260509071406 75 146 0.0 1.0 0.00 0.00 0.00 92 1005.9
20260509070406 75 146 0.0 1.0 0.00 0.00 0.00 91 1005.9
20260509065406 75 146 0.0 1.0 0.00 0.00 0.00 91 1006.1
20260509064406 75 146 0.0 0.0 0.00 0.00 0.00 91 1006.0
20260509063406 75 146 0.0 0.0 0.00 0.00 0.00 91 1006.0
20260509062406 75 146 0.0 0.0 0.00 0.00 0.00 91 1006.2
20260509061406 75 146 0.0 1.0 0.00 0.00 0.00 91 1006.2
20260509060406 75 146 0.0 0.0 0.00 0.00 0.00 91 1006.2
20260509055406 75 146 0.0 1.0 0.00 0.00 0.00 91 1006.4
20260509054409 75 146 0.0 1.0 0.00 0.00 0.00 91 1006.2
20260509053407 75 146 0.0 0.0 0.00 0.00 0.00 91 1006.2
20260509052406 75 146 0.0 0.0 0.00 0.00 0.00 91 1006.3
20260509051407 75 146 0.0 0.0 0.00 0.00 0.00 90 1006.4
20260509050406 75 146 0.0 1.0 0.00 0.00 0.02 90 1006.4
20260509045406 75 146 0.0 2.0 0.00 0.00 0.02 90 1006.3
20260509044406 75 146 0.0 1.0 0.00 0.00 0.02 90 1006.5
20260509043406 75 146 0.0 2.0 0.00 0.00 0.02 90 1006.5
20260509042407 75 146 0.0 0.0 0.00 0.00 0.02 90 1006.5
20260509041406 75 146 0.0 0.0 0.00 0.00 0.02 89 1006.3
20260509040405 75 146 0.0 2.0 0.00 0.00 0.02 89 1006.3
20260509035407 75 146 0.0 1.0 0.00 0.00 0.02 89 1006.2
20260509034406 75 146 0.0 1.0 0.00 0.00 0.02 89 1006.0
20260509033406 75 146 0.0 0.0 0.00 0.00 0.02 89 1006.0
20260509032406 75 146 0.0 2.0 0.00 0.00 0.02 89 1005.8